Location: Ostrava
(49.8330°N, 18.2830°E)
Time: 04:43:18
(UTC+02:00)

ISS - Pass Details

Date: 26 May 2021
Orbit: 417 x 422 km, 51.6° (Epoch: 13 June)

Event Time Altitude Azimuth Distance (km) Brightness Sun altitude
Rises 23:02:08 0° 287° (WNW) 2,368 0.7 -15.4°
Reaches altitude 10° 23:04:21 10° 277° (W) 1,502 -0.5 -15.5°
Maximum altitude 23:07:24 32° 213° (SSW) 750 -2.8 -15.7°
Enters shadow 23:07:47 31° 198° (SSW) 768 -2.9 -15.8°
